Temperature
21 20 20 21 26 29 29 30 30 30 29 28 28 28 28 28 27 26 22 22 21 20 19 20 20 20 20 20 19 19 19 19 19 19 19 19 18 18 18 18 18 18 18 18 18 18 18 18 18
20 20 21 25 29 29 29 30 30 30 29 27 27 27 27 27 25 23 21 21 20 20 19 19 20 20 20 20 20 19 19 19 19 19 19 19 18 18 18 18 18 18 18 18 18 18 18 18 18
20 21 24 28 29 30 30 30 30 29 28 27 27 27 27 26 23 22 21 20 20 20 19 19 20 19 19 19 19 19 19 19 19 19 19 19 18 18 18 18 18 18 18 18 18 18 18 18 18
21 23 26 29 30 30 30 31 30 30 28 27 27 27 25 22 22 21 20 20 20 19 19 19 20 19 19 19 19 19 19 19 19 19 19 18 18 18 18 18 18 18 18 18 18 18 18 18 18
22 26 29 30 30 31 31 30 30 30 29 28 27 28 25 21 21 21 20 20 20 20 19 19 19 19 19 19 19 19 19 19 19 18 18 18 18 18 18 18 18 18 18 18 18 18 18 18 18
26 28 30 30 30 30 31 30 30 30 29 28 27 27 25 21 20 20 20 20 20 20 19 18 19 19 19 19 19 19 19 19 19 18 18 18 18 18 18 18 18 18 18 18 18 18 18 18 18
27 29 30 30 30 30 31 30 30 30 30 28 27 27 25 21 20 20 20 20 20 20 19 18 18 19 19 19 19 19 19 19 19 18 18 18 18 18 18 18 18 18 18 18 18 17 17 17 17
26 29 30 30 30 30 31 30 29 29 29 27 26 27 26 21 20 20 20 20 20 19 19 18 18 18 18 18 19 19 19 19 18 18 18 18 18 18 18 17 18 18 18 18 18 18 17 17 17
25 29 30 30 30 31 31 30 29 28 28 26 25 25 24 21 20 19 19 19 19 19 19 19 18 18 18 18 18 18 18 18 18 18 18 18 17 17 17 17 18 18 18 18 18 18 18 17 17
27 30 30 31 31 31 30 30 30 29 28 27 26 23 21 20 19 19 19 19 19 19 19 18 19 18 18 18 18 18 18 18 17 17 17 17 17 17 17 17 18 17 17 18 18 18 18 17 17
28 30 31 31 30 30 30 30 29 29 29 28 27 24 20 20 20 19 20 20 19 19 18 18 18 18 18 18 18 18 18 18 17 17 17 17 17 17 17 17 17 17 17 17 17 17 17 17 17
29 30 30 30 30 30 30 30 29 29 28 26 25 23 21 20 20 20 20 19 19 18 18 18 18 18 18 18 18 18 18 18 18 17 18 17 17 17 17 17 17 17 17 17 17 17 17 17 17
29 30 30 30 30 30 29 29 29 28 26 25 24 23 21 20 20 20 19 19 19 18 18 18 18 18 18 18 18 18 18 18 18 17 18 17 17 17 17 17 17 17 17 17 17 16 16 16 16
30 30 30 30 30 29 30 30 29 27 26 25 24 22 21 21 20 19 19 18 18 18 18 18 18 18 18 18 18 18 18 18 18 17 17 17 17 17 17 17 17 17 17 17 17 17 16 17 17
29 30 31 31 30 30 30 30 29 26 25 24 23 22 21 20 19 19 18 18 18 18 17 18 18 18 18 18 18 18 18 18 17 17 17 17 17 17 17 17 17 17 17 17 17 16 16 17 17
30 30 31 31 31 30 30 30 28 25 25 24 23 22 20 19 19 18 18 18 17 17 17 18 18 18 18 18 18 17 17 17 17 17 17 17 17 17 17 17 17 16 16 16 16 17 17 17 17
30 30 30 31 31 30 30 30 28 25 25 24 23 22 20 19 18 18 18 17 17 17 17 17 17 18 17 18 18 17 17 17 17 17 17 17 17 17 17 17 16 16 16 16 17 17 17 17 17
29 30 30 30 31 30 30 30 28 26 25 24 23 22 20 19 19 18 17 17 17 17 17 17 17 17 17 17 17 17 17 17 17 17 17 17 16 16 16 16 16 16 16 16 16 16 16 16 16
29 29 29 30 30 30 30 29 28 26 25 24 23 22 21 20 19 18 17 17 17 17 17 17 17 17 17 17 17 17 17 17 17 16 17 16 16 16 16 16 16 16 16 16 16 16 16 16 16
29 29 30 30 30 29 29 29 29 26 25 24 23 22 21 20 19 18 17 17 17 17 17 17 17 17 17 17 17 17 17 17 16 16 17 16 16 16 16 16 16 16 16 15 15 15 17 17 16
29 29 29 29 30 29 29 29 28 27 25 24 23 22 22 21 19 18 17 17 17 17 17 17 17 17 17 17 17 17 17 17 16 16 16 16 16 16 16 16 16 15 16 16 15 15 16 17 16
29 30 29 29 29 30 29 28 29 28 26 25 24 22 22 21 19 18 17 17 17 17 17 17 17 17 17 17 17 17 17 17 17 16 16 16 16 16 16 15 15 15 16 15 16 15 16 16 17
29 29 29 29 29 29 29 28 30 28 27 27 25 23 22 21 20 18 17 17 17 16 16 16 17 17 17 17 17 17 17 17 17 16 16 16 16 16 16 15 15 15 15 15 15 15 15 16 16
29 28 28 29 29 28 29 28 29 29 28 27 26 23 22 20 19 18 17 17 16 16 16 16 16 16 17 17 16 17 16 16 17 16 16 16 16 16 16 15 15 15 15 15 15 15 15 15 16
28 28 28 28 28 28 28 28 29 29 28 27 26 23 22 20 19 18 17 17 16 16 16 16 16 17 17 17 17 17 17 16 17 17 16 16 16 16 16 16 16 15 15 15 15 15 15 15 15
29 29 27 27 28 29 29 28 29 29 27 26 25 24 22 21 20 19 18 17 17 17 16 16 16 17 17 17 17 17 17 16 16 16 16 16 16 16 16 16 16 16 15 15 15 15 15 15 15
29 29 30 29 28 28 29 29 29 28 27 26 25 23 22 21 20 19 18 18 17 17 17 17 17 17 17 17 17 17 17 16 16 16 16 16 16 16 16 16 16 16 16 15 16 15 15 15 15
29 30 29 28 27 27 28 29 29 29 28 27 26 24 23 21 21 20 19 18 18 17 17 17 17 17 17 17 17 16 17 17 16 16 16 16 16 16 16 16 16 16 16 16 16 15 15 15 15
28 28 28 29 28 27 27 29 30 29 28 27 26 24 23 22 21 20 19 19 18 17 17 17 17 17 17 17 16 16 16 16 16 16 16 16 16 16 16 16 16 16 16 16 16 15 15 15 15
29 29 28 27 27 27 28 29 30 29 29 28 27 24 23 22 21 20 20 19 18 18 17 17 17 17 17 17 17 16 16 16 16 16 16 16 16 16 16 16 16 16 16 16 15 15 15 15 15
Wind_Speed
10 6 4 4 5 3 2 3 2 2 1 1 1 1 1 1 2 3 5 17 21 21 22 22 19 18 18 17 17 17 17 16 16 15 14 13 12 11 10 10 9 9 9 8 8 8 8 8 8
5 4 5 5 5 1 4 2 1 3 3 1 2 3 2 0 3 5 9 18 22 22 22 21 21 19 18 18 17 17 16 16 15 14 13 12 11 11 10 9 9 9 9 8 8 8 8 8 9
5 5 5 4 3 2 4 2 2 1 1 2 2 1 2 2 4 5 10 20 21 20 21 22 22 20 19 18 17 17 16 16 15 14 13 12 11 10 10 10 9 9 9 9 9 9 8 8 8
4 5 5 6 2 2 2 2 2 2 3 4 3 1 3 4 2 6 16 22 22 20 21 23 21 20 19 18 17 17 16 15 15 13 12 12 11 10 10 9 8 9 9 9 9 8 8 8 8
6 5 6 5 1 1 2 3 3 4 3 3 5 2 3 4 4 11 19 21 21 20 20 23 21 20 19 18 17 16 16 15 14 13 12 11 10 10 9 8 8 8 9 9 8 8 7 7 7
5 5 5 1 4 1 0 1 3 4 3 3 4 4 3 5 9 14 19 20 19 19 19 22 20 20 19 18 17 16 15 14 13 12 11 10 10 9 8 7 7 8 8 8 7 7 6 6 6
6 5 2 1 1 1 2 1 3 4 4 4 3 3 4 8 11 16 18 18 18 18 18 19 20 19 18 17 16 16 15 14 13 12 11 10 9 8 7 7 7 7 7 6 6 6 6 6 5
5 4 3 1 2 2 2 2 3 6 3 1 4 4 4 11 14 16 17 17 17 16 16 17 18 18 18 17 16 15 14 13 12 11 10 9 9 8 7 7 7 6 5 5 5 5 5 5 5
5 6 2 1 3 4 3 5 3 4 4 5 5 2 5 16 17 17 17 16 16 15 15 15 16 16 16 16 17 15 14 13 13 11 10 9 8 8 8 6 6 5 4 4 4 4 4 3 6
5 6 2 4 6 8 8 8 6 6 8 8 7 5 12 18 18 19 20 20 20 18 16 14 14 14 14 13 15 13 13 12 10 9 9 7 5 4 4 9 5 4 4 5 5 4 5 7 6
5 6 6 7 7 9 10 9 7 9 8 6 7 10 15 18 18 19 20 20 20 19 16 15 14 14 13 10 11 10 9 10 9 8 7 5 5 5 4 5 7 6 6 6 7 7 5 3 1
6 8 9 10 10 10 10 9 7 7 7 4 3 10 17 19 19 19 19 19 18 18 17 15 14 13 12 10 9 9 8 8 7 8 7 6 4 3 3 3 4 5 4 3 4 3 3 2 2
9 9 10 11 11 9 8 8 7 5 4 2 3 11 16 17 17 16 16 16 16 17 16 15 14 13 11 9 8 8 8 8 8 7 6 5 4 3 3 3 2 3 3 4 4 3 3 3 4
7 11 12 10 6 4 6 5 3 2 2 1 6 10 13 14 15 15 15 16 17 16 15 14 14 14 12 10 8 7 8 7 7 6 6 5 4 3 3 4 3 3 3 2 2 3 3 4 3
9 11 8 2 3 3 7 4 1 2 1 3 6 8 10 11 13 14 15 15 16 16 15 15 15 14 13 11 10 8 7 8 6 6 6 5 4 3 3 3 3 3 3 3 3 3 4 4 4
9 9 5 2 3 3 6 6 5 2 2 4 6 7 9 9 10 11 13 13 13 14 15 15 13 14 13 10 9 8 7 7 6 6 6 5 4 4 4 3 3 3 3 3 3 3 3 3 3
8 6 5 3 3 5 6 7 3 1 2 4 6 7 8 8 9 9 11 12 13 15 15 15 13 13 13 11 9 8 7 6 5 5 5 5 5 5 4 2 2 4 3 3 3 3 3 3 3
5 7 6 7 6 8 8 7 2 1 3 4 6 7 8 9 9 9 9 10 12 14 14 14 13 13 12 10 8 7 7 6 6 5 5 5 5 5 4 4 3 4 3 3 1 2 1 1 2
8 9 9 7 6 8 9 9 4 2 4 5 6 7 8 8 9 8 9 10 11 12 14 14 13 13 11 9 10 9 8 7 6 6 6 6 5 6 4 3 4 3 2 2 3 3 4 3 2
10 11 10 7 5 7 10 10 2 3 4 5 6 7 8 8 9 9 9 10 11 13 13 14 14 14 12 10 8 7 8 6 6 5 6 6 6 6 5 3 4 3 2 3 2 3 3 2 3
12 11 9 10 9 7 8 7 3 4 5 5 6 6 7 8 8 9 9 10 11 13 14 13 14 13 13 12 9 8 7 6 6 6 6 6 6 5 4 4 3 3 4 3 3 3 4 3 3
13 8 8 10 11 8 5 9 1 3 5 6 7 7 7 8 7 7 8 9 11 12 13 13 14 13 12 12 12 12 10 8 7 7 6 6 6 6 5 4 4 3 3 2 4 3 3 3 4
12 6 8 9 10 11 6 8 3 3 3 4 7 8 8 7 7 7 7 8 9 11 12 12 13 13 13 13 13 12 10 8 7 7 8 7 6 6 6 5 4 3 3 2 1 2 3 4 4
7 7 8 9 10 11 5 7 6 2 2 2 7 8 8 8 8 8 7 8 9 11 11 12 13 13 13 13 13 13 11 10 9 9 9 8 7 6 7 6 5 4 3 3 3 3 3 2 2
10 11 10 10 9 7 0 6 5 2 0 2 6 9 9 9 9 9 9 10 11 12 12 12 13 14 14 14 13 13 12 11 11 10 9 8 7 7 7 6 5 4 4 4 3 3 2 3 2
13 14 12 10 9 7 3 5 3 2 3 4 6 9 10 10 10 10 11 11 11 12 13 13 14 14 14 14 13 12 11 10 9 10 8 8 6 6 7 7 6 6 5 5 4 4 4 3 4
11 13 12 11 12 11 7 5 3 4 6 7 8 10 11 11 11 11 12 12 12 12 12 13 14 14 14 14 13 12 12 10 9 9 9 8 6 6 7 7 6 6 6 5 5 4 4 4 5
11 9 7 10 11 11 9 7 3 3 5 9 10 11 11 12 12 12 12 12 12 12 12 12 13 14 13 13 12 11 12 11 9 9 8 7 6 6 7 7 7 7 7 7 6 6 5 5 5
10 10 10 10 10 11 11 6 2 1 4 9 11 12 13 13 13 13 12 12 12 13 13 13 13 13 13 12 12 11 11 11 10 9 8 7 7 7 7 7 7 7 7 7 7 7 6 7 6
10 12 12 11 12 11 13 9 2 1 4 7 10 12 13 13 14 14 13 13 13 13 13 14 13 13 13 13 12 11 11 10 10 9 8 7 7 6 6 7 7 7 7 7 8 8 7 7 7
Wind_Direction
193 207 236 248 242 228 56 56 11 18 45 59 135 217 284 319 340 47 110 152 150 150 148 153 153 150 146 143 140 137 136 135 135 135 135 135 135 132 128 125 118 113 108 103 98 93 92 96 103
190 210 239 245 260 161 88 58 357 16 42 107 189 222 255 140 55 94 139 151 153 151 150 155 151 151 147 144 141 139 138 137 137 136 135 133 130 128 125 121 118 113 109 104 99 96 95 98 104
200 236 261 253 256 2 50 51 11 31 146 216 208 242 316 57 114 137 148 154 156 151 151 148 153 152 150 146 143 141 140 138 137 137 136 133 130 129 124 118 114 109 107 103 97 96 97 100 107
215 230 239 250 241 50 333 347 332 235 202 219 236 188 108 62 114 144 152 159 156 152 153 149 156 154 152 149 146 144 142 140 139 138 137 134 132 129 123 118 114 107 104 99 95 97 99 100 105
240 254 239 219 119 64 290 301 271 250 221 215 233 255 124 103 119 144 155 160 156 156 154 151 158 155 154 152 149 146 144 142 141 140 138 136 132 127 124 120 115 108 103 99 96 96 100 102 109
236 247 243 145 93 67 279 254 240 250 241 223 234 247 120 124 142 149 157 160 159 157 154 150 157 156 156 155 152 149 147 145 144 141 140 137 130 126 126 126 118 110 103 100 98 94 92 97 105
262 259 266 1 55 90 18 316 268 270 249 231 229 238 138 143 146 153 159 160 160 160 155 154 160 160 159 157 155 152 151 149 146 143 141 137 134 134 132 126 122 117 112 109 105 98 88 84 96
273 267 224 190 313 17 18 294 293 284 280 206 214 240 171 151 150 154 158 161 162 163 158 158 164 162 163 160 157 155 153 151 147 144 144 142 144 148 145 154 131 127 126 125 118 109 95 86 96
261 250 234 23 330 333 331 295 281 265 237 213 215 257 114 144 153 157 161 164 166 167 164 165 162 164 166 162 156 158 156 155 156 155 152 168 170 160 168 128 124 139 142 139 134 124 115 132 132
242 260 346 335 308 308 308 298 281 248 238 227 204 153 139 151 160 167 169 171 171 171 171 168 164 165 167 162 157 163 165 161 172 160 166 175 159 163 154 123 145 155 160 165 154 146 176 220 164
244 274 313 306 302 301 297 292 277 261 261 253 225 178 163 164 169 176 177 176 174 172 172 170 168 170 165 161 161 162 160 161 167 161 168 165 174 177 179 172 169 179 189 192 163 190 203 195 142
258 275 285 290 303 296 294 292 284 270 288 325 249 176 170 175 178 181 181 178 172 171 173 172 167 168 168 165 162 163 164 165 165 162 178 172 184 192 184 200 184 191 190 184 201 191 184 183 188
253 282 293 293 292 293 287 278 281 284 298 310 169 168 177 180 180 180 179 177 174 172 173 172 168 167 165 164 171 166 166 165 162 163 173 184 187 192 183 193 208 223 193 191 203 204 185 194 197
289 292 290 289 298 284 281 282 257 315 329 175 163 172 179 179 177 175 177 177 177 174 175 172 172 169 168 169 171 164 165 163 163 168 167 185 192 184 190 193 195 212 216 219 218 193 197 212 198
283 282 273 248 310 317 295 259 98 24 108 158 164 169 171 177 179 180 180 179 179 176 176 176 176 173 173 171 170 165 166 165 166 158 163 179 193 184 197 189 194 191 194 190 215 206 211 212 200
256 258 266 41 354 334 298 330 72 61 164 163 163 164 168 174 182 182 181 180 182 179 178 180 179 175 173 170 169 164 166 159 164 162 162 173 179 188 204 196 181 165 193 196 192 223 212 209 207
231 259 300 333 359 327 301 321 44 55 183 169 168 169 171 173 181 182 183 182 183 184 182 181 181 176 174 168 166 161 157 158 159 164 165 164 179 183 203 195 145 189 197 201 214 181 225 200 200
262 285 295 319 343 322 308 320 344 194 202 180 174 175 178 184 187 185 185 184 186 187 185 180 178 173 168 163 162 160 158 160 161 164 158 164 174 179 190 177 169 206 195 190 194 161 202 224 208
284 286 293 314 336 316 313 317 316 206 203 191 188 185 187 188 185 183 181 180 182 183 181 178 177 172 169 168 170 168 165 166 163 166 162 170 177 172 194 185 168 219 195 207 195 201 176 193 188
261 271 283 302 332 311 310 305 295 202 212 208 199 195 191 186 183 182 179 180 183 183 182 180 179 176 175 171 169 168 161 165 160 159 154 171 176 179 181 196 196 193 179 192 204 225 232 172 197
251 263 286 307 311 263 298 288 186 187 201 201 200 194 190 189 188 185 186 189 187 186 186 183 179 176 177 167 160 156 155 161 162 165 167 178 181 183 181 187 208 191 213 179 203 211 225 214 197
249 258 281 292 294 307 321 315 282 185 209 204 198 191 191 187 186 185 189 192 192 189 184 180 176 174 173 169 174 174 178 176 174 174 165 171 182 184 181 185 190 210 214 170 207 193 225 241 221
253 274 276 282 284 287 275 297 334 172 245 204 190 188 189 182 180 180 183 184 183 179 176 173 172 171 172 178 179 180 183 177 168 169 164 178 178 188 190 189 188 198 209 186 216 181 241 238 255
236 243 251 256 264 270 296 301 314 3 314 185 173 179 182 177 171 167 169 167 166 170 170 169 168 168 173 179 182 185 182 176 169 175 174 185 180 187 189 191 191 199 195 183 200 206 203 249 276
222 239 247 246 243 264 323 284 307 6 182 183 170 172 176 174 169 165 167 167 166 167 168 171 171 171 177 182 185 186 184 181 181 184 184 190 183 184 182 188 193 198 195 201 205 208 225 213 224
223 236 249 266 275 286 240 274 325 102 148 157 163 165 171 174 171 168 168 167 169 169 170 173 175 175 179 183 185 187 187 190 190 192 189 190 192 185 174 187 195 200 202 205 204 218 210 211 223
224 234 252 264 270 277 277 275 261 172 179 174 167 167 174 175 172 170 168 169 170 171 172 175 178 179 180 184 183 186 191 196 192 186 195 192 193 187 183 192 199 202 204 209 212 222 219 213 227
245 243 234 249 263 270 269 269 283 201 191 179 178 177 174 173 173 171 169 169 169 171 172 173 174 177 178 181 185 188 190 191 190 195 193 193 193 196 195 199 203 205 204 207 217 221 214 223 229
207 221 237 251 262 272 278 285 62 284 209 187 181 178 175 175 173 171 170 170 170 170 171 172 174 176 179 182 187 189 188 187 188 195 197 197 203 199 205 207 209 211 211 210 215 230 221 226 229
240 237 233 246 252 254 271 279 105 204 200 189 177 170 171 173 171 171 170 169 171 173 173 175 177 179 181 183 185 189 189 187 189 195 201 202 208 212 211 214 216 218 218 216 219 226 225 226 231
Height
1517 1518 1519 1520 1512 1502 1501 1497 1495 1494 1496 1500 1502 1502 1501 1502 1506 1513 1514 1515 1518 1521 1524 1527 1530 1534 1537 1539 1541 1543 1545 1547 1548 1550 1551 1553 1554 1555 1556 1556 1557 1558 1558 1559 1559 1560 1560 1560 1561
1520 1519 1520 1516 1504 1503 1502 1495 1495 1495 1498 1502 1503 1504 1503 1504 1509 1512 1513 1515 1519 1522 1525 1528 1531 1535 1537 1540 1542 1544 1546 1548 1550 1551 1553 1554 1555 1556 1557 1558 1559 1559 1560 1560 1561 1561 1562 1562 1562
1520 1520 1519 1508 1500 1500 1500 1494 1494 1497 1501 1502 1502 1504 1504 1507 1510 1512 1513 1515 1520 1524 1527 1529 1532 1535 1538 1541 1543 1545 1547 1549 1551 1553 1554 1555 1556 1557 1558 1559 1560 1561 1561 1562 1562 1563 1563 1564 1564
1521 1520 1516 1506 1498 1495 1496 1493 1495 1497 1500 1502 1502 1503 1506 1510 1510 1511 1512 1516 1521 1524 1528 1529 1533 1536 1539 1542 1544 1546 1548 1550 1552 1554 1555 1556 1558 1559 1560 1560 1561 1562 1563 1563 1564 1564 1565 1566 1566
1521 1516 1506 1499 1496 1494 1494 1495 1496 1495 1497 1500 1502 1501 1506 1509 1509 1510 1512 1517 1521 1525 1529 1531 1534 1537 1540 1543 1545 1547 1549 1551 1553 1555 1556 1558 1559 1560 1561 1562 1563 1563 1564 1565 1565 1566 1567 1568 1568
1518 1510 1501 1497 1495 1494 1492 1494 1495 1495 1496 1500 1501 1501 1505 1508 1509 1511 1514 1518 1523 1526 1530 1531 1534 1538 1541 1544 1546 1548 1550 1552 1554 1556 1557 1559 1560 1561 1562 1563 1564 1564 1565 1566 1567 1568 1569 1569 1570
1515 1505 1499 1497 1496 1494 1492 1494 1493 1493 1494 1498 1501 1501 1505 1508 1509 1511 1515 1519 1523 1527 1530 1532 1535 1538 1541 1544 1547 1549 1551 1553 1555 1557 1558 1559 1560 1562 1563 1564 1565 1565 1566 1567 1568 1569 1570 1571 1571
1514 1506 1497 1495 1496 1493 1492 1494 1494 1494 1495 1499 1501 1500 1502 1507 1508 1512 1516 1520 1524 1527 1530 1532 1536 1539 1542 1544 1547 1549 1552 1554 1555 1557 1559 1560 1561 1562 1564 1565 1565 1566 1567 1568 1569 1570 1571 1572 1573
1515 1506 1496 1494 1496 1492 1491 1492 1493 1495 1496 1498 1500 1501 1503 1504 1507 1511 1515 1519 1522 1526 1530 1533 1536 1539 1543 1546 1547 1549 1552 1554 1556 1558 1559 1561 1563 1565 1565 1566 1566 1567 1567 1568 1569 1570 1571 1573 1574
1511 1500 1494 1494 1493 1491 1491 1491 1491 1493 1493 1495 1498 1501 1502 1503 1505 1509 1512 1515 1520 1524 1528 1532 1535 1539 1543 1546 1547 1550 1553 1554 1557 1559 1560 1562 1563 1565 1566 1565 1566 1567 1568 1569 1569 1571 1572 1574 1576
1506 1499 1494 1493 1492 1492 1490 1489 1489 1489 1488 1491 1494 1498 1500 1501 1504 1507 1510 1514 1518 1522 1526 1530 1534 1538 1542 1545 1547 1550 1553 1554 1557 1558 1560 1561 1563 1564 1566 1567 1567 1568 1568 1570 1570 1571 1574 1575 1576
1504 1498 1496 1494 1492 1491 1489 1488 1487 1488 1489 1491 1493 1495 1497 1499 1501 1505 1509 1513 1517 1521 1525 1529 1533 1536 1540 1544 1547 1549 1552 1554 1557 1557 1559 1561 1563 1564 1565 1566 1568 1568 1569 1570 1571 1571 1573 1573 1574
1500 1496 1494 1491 1489 1488 1488 1486 1487 1488 1490 1491 1492 1494 1496 1498 1500 1504 1508 1512 1515 1519 1523 1528 1531 1535 1538 1542 1545 1549 1552 1554 1556 1557 1559 1560 1562 1563 1564 1565 1566 1568 1569 1569 1569 1570 1571 1572 1573
1497 1495 1491 1488 1487 1487 1486 1484 1486 1487 1490 1490 1492 1493 1495 1497 1500 1504 1507 1510 1514 1517 1521 1526 1529 1533 1537 1540 1544 1548 1551 1553 1556 1557 1558 1559 1562 1562 1563 1564 1565 1567 1568 1569 1569 1570 1570 1571 1573
1498 1492 1485 1484 1485 1484 1484 1480 1484 1488 1489 1490 1492 1494 1496 1498 1500 1503 1505 1508 1512 1516 1520 1524 1528 1532 1536 1540 1543 1547 1550 1552 1555 1556 1557 1558 1561 1561 1563 1564 1565 1566 1567 1567 1568 1568 1569 1570 1572
1492 1488 1485 1481 1483 1483 1484 1482 1484 1488 1489 1490 1492 1494 1496 1498 1500 1502 1504 1508 1511 1515 1518 1522 1527 1530 1534 1538 1542 1546 1549 1551 1553 1555 1557 1558 1559 1561 1562 1564 1565 1565 1566 1567 1567 1569 1569 1570 1571
1487 1487 1487 1482 1480 1480 1480 1480 1483 1486 1487 1489 1491 1493 1496 1498 1499 1501 1503 1506 1509 1512 1516 1520 1525 1529 1533 1537 1541 1544 1547 1550 1552 1554 1556 1557 1559 1560 1562 1563 1564 1564 1566 1566 1567 1568 1568 1569 1570
1491 1488 1486 1484 1478 1478 1476 1476 1479 1484 1486 1488 1490 1493 1495 1497 1498 1500 1501 1504 1506 1510 1514 1518 1523 1527 1531 1535 1539 1543 1546 1548 1551 1553 1555 1556 1558 1559 1561 1562 1562 1564 1565 1565 1566 1566 1567 1568 1569
1490 1490 1487 1482 1478 1479 1476 1475 1476 1482 1485 1487 1489 1491 1493 1495 1497 1498 1500 1501 1504 1507 1511 1516 1520 1525 1529 1533 1537 1541 1544 1547 1550 1552 1553 1555 1557 1558 1559 1562 1561 1563 1564 1564 1565 1566 1567 1568 1569
1490 1489 1484 1478 1477 1479 1476 1474 1473 1479 1482 1485 1487 1489 1491 1493 1496 1497 1498 1500 1502 1505 1508 1512 1517 1522 1527 1531 1536 1539 1543 1546 1548 1551 1552 1554 1556 1557 1559 1560 1561 1562 1562 1563 1564 1565 1567 1568 1568
1487 1486 1483 1483 1477 1474 1476 1471 1472 1476 1480 1483 1485 1487 1489 1491 1493 1495 1497 1498 1500 1502 1505 1509 1514 1520 1524 1529 1533 1537 1541 1544 1547 1549 1551 1553 1554 1556 1557 1558 1560 1560 1562 1563 1563 1564 1565 1567 1568
1486 1478 1481 1481 1481 1475 1479 1482 1469 1470 1474 1478 1482 1485 1487 1489 1491 1493 1494 1495 1497 1499 1502 1506 1511 1516 1521 1526 1531 1535 1539 1542 1545 1548 1550 1551 1553 1555 1556 1557 1558 1559 1561 1561 1563 1563 1565 1566 1568
1479 1478 1480 1479 1479 1479 1473 1479 1468 1467 1470 1472 1477 1481 1484 1487 1489 1491 1492 1493 1494 1497 1500 1504 1509 1514 1519 1524 1528 1533 1537 1541 1544 1546 1548 1550 1552 1554 1555 1556 1557 1558 1560 1560 1561 1561 1563 1565 1566
1477 1481 1479 1477 1475 1485 1475 1481 1473 1462 1466 1468 1474 1479 1483 1486 1488 1490 1491 1492 1494 1496 1499 1503 1507 1512 1517 1522 1527 1531 1535 1539 1542 1545 1547 1549 1551 1553 1554 1555 1556 1557 1559 1559 1560 1560 1561 1563 1564
1478 1484 1488 1488 1485 1481 1471 1477 1470 1461 1464 1467 1471 1477 1481 1484 1486 1489 1490 1492 1494 1496 1499 1503 1507 1511 1515 1520 1525 1529 1534 1537 1540 1543 1546 1548 1551 1552 1552 1554 1555 1556 1557 1558 1559 1559 1561 1561 1562
1472 1475 1488 1495 1489 1475 1469 1474 1462 1460 1465 1468 1471 1475 1479 1482 1485 1487 1490 1492 1494 1497 1499 1502 1506 1510 1514 1518 1523 1528 1532 1536 1540 1542 1545 1547 1549 1551 1552 1552 1553 1555 1556 1557 1557 1559 1559 1560 1561
1470 1470 1463 1474 1476 1481 1470 1463 1457 1460 1463 1467 1470 1474 1477 1480 1483 1486 1489 1491 1494 1496 1499 1501 1504 1508 1513 1517 1521 1525 1530 1534 1537 1540 1543 1545 1547 1549 1550 1551 1552 1553 1554 1556 1556 1558 1558 1558 1559
1462 1461 1468 1474 1487 1488 1474 1466 1461 1457 1459 1463 1467 1471 1475 1479 1482 1485 1488 1491 1493 1496 1499 1500 1502 1506 1511 1515 1520 1524 1528 1531 1535 1538 1541 1543 1545 1547 1549 1550 1551 1552 1553 1554 1555 1556 1556 1557 1557
1466 1467 1466 1465 1467 1480 1481 1467 1448 1452 1455 1459 1464 1469 1473 1477 1480 1484 1487 1490 1493 1496 1499 1501 1503 1506 1510 1514 1518 1522 1525 1529 1532 1536 1539 1541 1543 1545 1547 1548 1549 1550 1551 1552 1553 1554 1554 1555 1555
1457 1458 1462 1472 1472 1469 1472 1464 1445 1449 1453 1457 1461 1467 1471 1475 1479 1482 1486 1489 1493 1495 1498 1501 1503 1506 1509 1513 1516 1520 1523 1526 1530 1533 1536 1539 1541 1543 1544 1546 1547 1548 1549 1550 1550 1551 1552 1552 1552